Time,TemperatureF,DewpointF,PressureIn,WindDirection,WindDirectionDegrees,WindSpeedMPH,WindSpeedGustMPH,Humidity,HourlyPrecipIn,Conditions,Clouds,dailyrainin,SoftwareType,DateUTC
2013-05-21 00:03:00,67.0,64.0,29.95,West,266,0.0,0.0,90,0.00,,,0.41,,2013-05-21 04:03:00,
2013-05-21 00:13:00,67.0,64.0,29.95,West,266,0.0,0.0,90,0.00,,,0.41,,2013-05-21 04:13:00,
2013-05-21 00:23:00,67.0,64.0,29.94,West,266,0.0,0.0,90,0.00,,,0.41,,2013-05-21 04:23:00,
2013-05-21 00:33:00,67.0,64.0,29.94,West,266,0.0,0.0,90,0.00,,,0.41,,2013-05-21 04:33:00,
2013-05-21 00:42:00,67.0,64.0,29.94,West,266,0.0,0.0,90,0.00,,,0.41,,2013-05-21 04:42:00,
2013-05-21 00:52:00,68.0,65.0,29.94,West,266,0.0,0.0,90,0.00,,,0.41,,2013-05-21 04:52:00,
2013-05-21 01:02:00,68.0,65.0,29.95,West,266,0.0,0.0,90,0.00,,,0.41,,2013-05-21 05:02:00,
2013-05-21 01:12:00,68.0,65.0,29.95,West,266,0.0,0.0,90,0.00,,,0.41,,2013-05-21 05:12:00,
2013-05-21 01:22:00,68.0,65.0,29.94,West,266,0.0,0.0,90,0.00,,,0.41,,2013-05-21 05:22:00,
2013-05-21 01:32:00,68.0,65.0,29.94,West,266,0.0,0.0,90,0.00,,,0.41,,2013-05-21 05:32:00,
2013-05-21 01:42:00,67.0,64.0,29.93,West,266,0.0,0.0,90,0.00,,,0.41,,2013-05-21 05:42:00,
2013-05-21 01:51:00,67.0,64.0,29.93,West,266,0.0,0.0,90,0.00,,,0.41,,2013-05-21 05:51:00,
2013-05-21 02:02:00,67.0,64.0,29.93,West,266,0.0,0.0,90,0.00,,,0.41,,2013-05-21 06:02:00,
2013-05-21 02:12:00,67.0,64.0,29.93,West,266,0.0,0.0,90,0.00,,,0.41,,2013-05-21 06:12:00,
2013-05-21 02:21:00,67.0,64.0,29.93,West,266,0.0,0.0,90,0.00,,,0.41,,2013-05-21 06:21:00,
2013-05-21 02:32:00,67.0,64.0,29.93,West,266,0.0,0.0,90,0.00,,,0.41,,2013-05-21 06:32:00,
2013-05-21 02:42:00,67.0,64.0,29.93,West,266,0.0,0.0,90,0.00,,,0.41,,2013-05-21 06:42:00,
2013-05-21 02:52:00,67.0,64.0,29.93,West,266,0.0,0.0,90,0.00,,,0.41,,2013-05-21 06:52:00,
2013-05-21 03:01:00,67.0,64.0,29.93,West,266,0.0,0.0,90,0.00,,,0.41,,2013-05-21 07:01:00,
2013-05-21 03:11:00,67.0,64.0,29.93,West,266,0.0,0.0,90,0.00,,,0.41,,2013-05-21 07:11:00,
2013-05-21 03:22:00,67.0,64.0,29.93,West,266,0.0,0.0,90,0.00,,,0.41,,2013-05-21 07:22:00,
2013-05-21 03:32:00,67.0,64.0,29.93,West,266,0.0,0.0,90,0.00,,,0.41,,2013-05-21 07:32:00,
2013-05-21 03:41:00,67.0,64.0,29.93,West,266,0.0,0.0,90,0.00,,,0.41,,2013-05-21 07:41:00,
2013-05-21 03:52:00,67.0,64.0,29.93,West,266,0.0,0.0,90,0.00,,,0.41,,2013-05-21 07:52:00,
2013-05-21 04:02:00,67.0,64.0,29.93,West,266,0.0,0.0,90,0.00,,,0.41,,2013-05-21 08:02:00,
2013-05-21 04:11:00,67.0,64.0,29.93,West,266,0.0,0.0,90,0.00,,,0.41,,2013-05-21 08:11:00,
2013-05-21 04:21:00,67.0,64.0,29.93,West,266,0.0,0.0,90,0.00,,,0.41,,2013-05-21 08:21:00,
2013-05-21 04:31:00,67.0,64.0,29.93,West,266,0.0,0.0,90,0.00,,,0.41,,2013-05-21 08:31:00,
2013-05-21 04:41:00,67.0,64.0,29.93,West,266,0.0,0.0,90,0.00,,,0.41,,2013-05-21 08:41:00,
2013-05-21 04:52:00,67.0,64.0,29.93,West,266,0.0,0.0,90,0.00,,,0.41,,2013-05-21 08:52:00,
2013-05-21 05:01:00,67.0,64.0,29.93,West,266,0.0,0.0,90,0.00,,,0.41,,2013-05-21 09:01:00,
2013-05-21 05:11:00,67.0,64.0,29.93,West,266,0.0,0.0,90,0.00,,,0.41,,2013-05-21 09:11:00,
2013-05-21 05:21:00,67.0,64.0,29.93,West,266,0.0,0.0,90,0.00,,,0.41,,2013-05-21 09:21:00,
2013-05-21 05:33:00,67.0,64.0,29.93,West,266,0.0,0.0,90,0.00,,,0.41,,2013-05-21 09:33:00,
2013-05-21 05:42:00,67.0,64.0,29.93,West,266,0.0,0.0,90,0.00,,,0.41,,2013-05-21 09:42:00,
2013-05-21 05:52:00,67.0,64.0,29.93,SW,221,0.0,0.0,90,0.00,,,0.41,,2013-05-21 09:52:00,
2013-05-21 06:03:00,67.0,64.0,29.94,SW,220,0.0,0.0,90,0.00,,,0.41,,2013-05-21 10:03:00,
2013-05-21 06:12:00,67.0,64.0,29.94,SW,220,0.0,0.0,90,0.00,,,0.41,,2013-05-21 10:12:00,
2013-05-21 06:22:00,67.0,64.0,29.94,SW,221,0.0,0.0,90,0.00,,,0.41,,2013-05-21 10:22:00,
2013-05-21 06:33:00,67.0,64.0,29.95,SW,220,0.0,0.0,90,0.00,,,0.41,,2013-05-21 10:33:00,
2013-05-21 06:42:00,67.0,64.0,29.95,SW,220,0.0,0.0,90,0.00,,,0.41,,2013-05-21 10:42:00,
2013-05-21 06:52:00,67.0,64.0,29.95,SW,221,0.0,0.0,90,0.00,,,0.41,,2013-05-21 10:52:00,
2013-05-21 07:02:00,67.0,64.0,29.96,SW,221,0.0,0.0,90,0.00,,,0.41,,2013-05-21 11:02:00,
2013-05-21 07:12:00,67.0,64.0,29.96,SW,221,0.0,0.0,90,0.00,,,0.41,,2013-05-21 11:12:00,
2013-05-21 07:22:00,67.0,64.0,29.95,SW,220,0.0,0.0,90,0.00,,,0.41,,2013-05-21 11:22:00,
2013-05-21 07:32:00,67.0,64.0,29.96,SW,221,0.0,0.0,90,0.00,,,0.40,,2013-05-21 11:32:00,
2013-05-21 07:42:00,67.0,64.0,29.96,SW,221,0.0,0.0,90,0.00,,,0.40,,2013-05-21 11:42:00,
2013-05-21 07:52:00,67.0,64.0,29.96,SW,221,0.0,0.0,90,0.00,,,0.40,,2013-05-21 11:52:00,
2013-05-21 08:01:00,67.0,64.0,29.96,SW,221,0.0,0.0,90,0.00,,,0.40,,2013-05-21 12:01:00,
2013-05-21 08:11:00,67.0,64.0,29.96,SW,221,0.0,0.0,90,0.00,,,0.40,,2013-05-21 12:11:00,
2013-05-21 08:21:00,67.0,64.0,29.96,SW,221,0.0,0.0,91,0.00,,,0.40,,2013-05-21 12:21:00,
2013-05-21 08:32:00,67.0,64.0,29.96,SW,221,0.0,0.0,91,0.00,,,0.40,,2013-05-21 12:32:00,
2013-05-21 08:42:00,67.0,64.0,29.96,SW,221,0.0,0.0,91,0.00,,,0.40,,2013-05-21 12:42:00,
2013-05-21 08:51:00,67.0,64.0,29.96,WSW,247,0.0,0.0,91,0.00,,,0.40,,2013-05-21 12:51:00,
2013-05-21 09:01:00,67.0,64.0,29.97,WSW,247,0.0,0.0,91,0.00,,,0.40,,2013-05-21 13:01:00,
2013-05-21 09:12:00,67.0,64.0,29.97,WSW,247,0.0,0.0,91,0.00,,,0.40,,2013-05-21 13:12:00,
2013-05-21 09:22:00,67.0,64.0,29.96,WSW,247,0.0,0.0,91,0.00,,,0.40,,2013-05-21 13:22:00,
2013-05-21 09:32:00,68.0,65.0,29.96,WSW,247,0.0,0.0,91,0.00,,,0.40,,2013-05-21 13:32:00,
2013-05-21 09:42:00,68.0,65.0,29.96,WSW,247,0.0,0.0,91,0.00,,,0.40,,2013-05-21 13:42:00,
2013-05-21 09:52:00,68.0,65.0,29.96,WSW,247,0.0,0.0,91,0.00,,,0.40,,2013-05-21 13:52:00,
2013-05-21 10:02:00,68.0,65.0,29.96,West,259,0.0,0.0,91,0.00,,,0.40,,2013-05-21 14:02:00,
2013-05-21 10:11:00,68.0,65.0,29.96,West,259,0.0,0.0,91,0.00,,,0.40,,2013-05-21 14:11:00,
2013-05-21 10:21:00,68.0,65.0,29.97,WSW,257,0.0,0.0,91,0.00,,,0.40,,2013-05-21 14:21:00,
2013-05-21 10:32:00,69.0,66.0,29.96,West,259,0.0,0.0,91,0.00,,,0.40,,2013-05-21 14:32:00,
2013-05-21 10:42:00,69.0,66.0,29.96,West,259,0.0,0.0,91,0.00,,,0.40,,2013-05-21 14:42:00,
2013-05-21 10:51:00,70.0,67.0,29.96,WSW,258,0.0,0.0,90,0.00,,,0.40,,2013-05-21 14:51:00,
2013-05-21 11:01:00,72.0,67.0,29.96,SSW,207,0.0,0.0,85,0.00,,,0.40,,2013-05-21 15:01:00,
2013-05-21 11:11:00,72.0,67.0,29.96,SSW,207,0.0,0.0,85,0.00,,,0.40,,2013-05-21 15:11:00,
2013-05-21 11:21:00,72.0,67.0,29.96,West,259,0.0,0.0,83,0.00,,,0.40,,2013-05-21 15:21:00,
2013-05-21 11:33:00,73.0,67.0,29.96,West,277,0.0,0.0,82,0.00,,,0.40,,2013-05-21 15:33:00,
2013-05-21 11:42:00,73.0,68.0,29.96,SW,229,0.0,0.0,83,0.00,,,0.40,,2013-05-21 15:42:00,
2013-05-21 11:52:00,73.0,68.0,29.96,SW,229,0.0,0.0,83,0.00,,,0.40,,2013-05-21 15:52:00,
2013-05-21 12:03:00,73.0,68.0,29.96,SW,229,0.0,0.0,83,0.00,,,0.40,,2013-05-21 16:03:00,
2013-05-21 12:13:00,73.0,68.0,29.96,SW,229,0.0,0.0,83,0.00,,,0.40,,2013-05-21 16:13:00,
2013-05-21 12:23:00,74.0,68.0,29.96,NE,55,0.0,0.0,83,0.00,,,0.40,,2013-05-21 16:23:00,
2013-05-21 12:32:00,74.0,67.0,29.95,NE,55,0.0,0.0,80,0.00,,,0.40,,2013-05-21 16:32:00,
2013-05-21 12:42:00,74.0,68.0,29.95,NE,38,0.0,0.0,81,0.00,,,0.40,,2013-05-21 16:42:00,
2013-05-21 12:52:00,74.0,68.0,29.95,NE,38,0.0,0.0,81,0.00,,,0.40,,2013-05-21 16:52:00,
2013-05-21 13:02:00,75.0,68.0,29.94,NE,38,0.0,0.0,79,0.00,,,0.40,,2013-05-21 17:02:00,
2013-05-21 13:12:00,75.0,68.0,29.94,NE,38,0.0,0.0,79,0.00,,,0.40,,2013-05-21 17:12:00,
2013-05-21 13:23:00,77.0,69.0,29.93,NW,326,0.0,0.0,77,0.00,,,0.40,,2013-05-21 17:23:00,
2013-05-21 13:33:00,77.0,69.0,29.93,WSW,250,0.0,0.0,76,0.00,,,0.39,,2013-05-21 17:33:00,
2013-05-21 13:43:00,78.0,68.0,29.92,West,269,0.0,0.0,71,0.00,,,0.39,,2013-05-21 17:43:00,
2013-05-21 13:52:00,78.0,68.0,29.92,West,269,0.0,0.0,71,0.00,,,0.39,,2013-05-21 17:52:00,
2013-05-21 14:02:00,78.0,69.0,29.91,West,269,0.0,0.0,75,0.00,,,0.39,,2013-05-21 18:02:00,
2013-05-21 14:12:00,78.0,69.0,29.91,West,269,0.0,0.0,75,0.00,,,0.39,,2013-05-21 18:12:00,
2013-05-21 14:22:00,78.0,69.0,29.91,West,262,0.0,0.0,73,0.00,,,0.39,,2013-05-21 18:22:00,
2013-05-21 14:32:00,78.0,69.0,29.91,SSW,197,0.0,0.0,74,0.00,,,0.39,,2013-05-21 18:32:00,
2013-05-21 14:42:00,78.0,70.0,29.91,SSW,197,0.0,0.0,76,0.00,,,0.39,,2013-05-21 18:42:00,
2013-05-21 14:52:00,78.0,70.0,29.91,SSW,197,0.0,0.0,76,0.00,,,0.39,,2013-05-21 18:52:00,
2013-05-21 15:01:00,81.0,69.0,29.90,WSW,257,0.0,0.0,68,0.00,,,0.39,,2013-05-21 19:01:00,
2013-05-21 15:11:00,81.0,69.0,29.90,WSW,257,0.0,0.0,68,0.00,,,0.39,,2013-05-21 19:11:00,
2013-05-21 15:21:00,81.0,69.0,29.90,SW,223,0.0,0.0,68,0.00,,,0.39,,2013-05-21 19:21:00,
2013-05-21 15:32:00,81.0,69.0,29.89,SSW,209,0.0,0.0,68,0.00,,,0.39,,2013-05-21 19:32:00,
2013-05-21 15:42:00,81.0,69.0,29.89,SSW,209,0.0,0.0,68,0.00,,,0.39,,2013-05-21 19:42:00,
2013-05-21 15:52:00,81.0,69.0,29.88,West,261,0.0,0.0,68,0.00,,,0.39,,2013-05-21 19:52:00,
2013-05-21 16:03:00,80.0,69.0,29.88,West,261,0.0,0.0,70,0.00,,,0.39,,2013-05-21 20:03:00,
2013-05-21 16:11:00,80.0,69.0,29.88,West,261,0.0,0.0,70,0.00,,,0.39,,2013-05-21 20:11:00,
2013-05-21 16:22:00,81.0,70.0,29.87,SW,222,0.0,0.0,69,0.00,,,0.39,,2013-05-21 20:22:00,
2013-05-21 16:32:00,81.0,70.0,29.87,SW,222,0.0,0.0,70,0.00,,,0.11,,2013-05-21 20:32:00,
2013-05-21 16:42:00,81.0,70.0,29.87,SW,222,0.0,0.0,70,0.00,,,0.11,,2013-05-21 20:42:00,
2013-05-21 16:52:00,82.0,71.0,29.87,West,277,0.0,0.0,69,0.00,,,0.11,,2013-05-21 20:52:00,
2013-05-21 17:02:00,81.0,69.0,29.87,NW,311,0.0,0.0,66,0.00,,,0.11,,2013-05-21 21:02:00,
2013-05-21 17:11:00,81.0,69.0,29.87,NW,311,0.0,0.0,66,0.00,,,0.11,,2013-05-21 21:11:00,
2013-05-21 17:22:00,80.0,70.0,29.86,WNW,289,0.0,0.0,71,0.00,,,0.11,,2013-05-21 21:22:00,
2013-05-21 17:33:00,81.0,69.0,29.86,West,281,0.0,0.0,67,0.00,,,0.01,,2013-05-21 21:33:00,
2013-05-21 17:43:00,81.0,69.0,29.86,West,281,0.0,0.0,67,0.00,,,0.01,,2013-05-21 21:43:00,
2013-05-21 17:53:00,79.0,68.0,29.87,NW,318,0.0,0.0,70,0.00,,,0.01,,2013-05-21 21:53:00,
2013-05-21 18:02:00,79.0,68.0,29.87,WNW,286,0.0,0.0,68,0.00,,,0.01,,2013-05-21 22:02:00,
2013-05-21 18:12:00,79.0,68.0,29.87,WNW,286,0.0,0.0,68,0.00,,,0.01,,2013-05-21 22:12:00,
2013-05-21 18:23:00,79.0,68.0,29.87,WNW,286,0.0,0.0,69,0.00,,,0.01,,2013-05-21 22:23:00,
2013-05-21 18:33:00,79.0,67.0,29.86,West,265,0.0,0.0,67,0.00,,,0.00,,2013-05-21 22:33:00,
2013-05-21 18:42:00,79.0,67.0,29.86,West,265,0.0,0.0,67,0.00,,,0.00,,2013-05-21 22:42:00,
2013-05-21 18:52:00,79.0,69.0,29.86,WNW,291,0.0,0.0,71,0.00,,,0.00,,2013-05-21 22:52:00,
2013-05-21 19:02:00,78.0,69.0,29.86,WNW,291,0.0,0.0,73,0.00,,,0.00,,2013-05-21 23:02:00,
2013-05-21 19:12:00,78.0,69.0,29.86,WNW,291,0.0,0.0,73,0.00,,,0.00,,2013-05-21 23:12:00,
2013-05-21 19:22:00,78.0,69.0,29.86,WNW,287,0.0,0.0,74,0.00,,,0.00,,2013-05-21 23:22:00,
2013-05-21 19:32:00,77.0,68.0,29.86,West,277,0.0,0.0,75,0.00,,,0.00,,2013-05-21 23:32:00,
2013-05-21 19:42:00,77.0,69.0,29.86,WNW,282,0.0,0.0,76,0.00,,,0.00,,2013-05-21 23:42:00,
2013-05-21 19:52:00,77.0,69.0,29.86,WNW,282,0.0,0.0,76,0.00,,,0.00,,2013-05-21 23:52:00,
2013-05-21 20:01:00,76.0,68.0,29.86,WNW,290,0.0,0.0,76,0.00,,,0.00,,2013-05-22 00:01:00,
2013-05-21 20:11:00,76.0,68.0,29.86,WNW,290,0.0,0.0,76,0.00,,,0.00,,2013-05-22 00:11:00,
2013-05-21 20:21:00,75.0,67.0,29.86,WNW,290,0.0,0.0,77,0.00,,,0.00,,2013-05-22 00:21:00,
2013-05-21 20:32:00,74.0,67.0,29.85,WNW,290,0.0,0.0,80,0.00,,,0.00,,2013-05-22 00:32:00,
2013-05-21 20:41:00,74.0,67.0,29.85,WNW,290,0.0,0.0,80,0.00,,,0.00,,2013-05-22 00:41:00,
2013-05-21 20:51:00,74.0,68.0,29.86,WNW,290,0.0,0.0,81,0.00,,,0.00,,2013-05-22 00:51:00,
2013-05-21 21:01:00,73.0,68.0,29.86,WNW,290,0.0,0.0,83,0.00,,,0.00,,2013-05-22 01:01:00,
2013-05-21 21:11:00,73.0,68.0,29.86,WNW,290,0.0,0.0,83,0.00,,,0.00,,2013-05-22 01:11:00,
2013-05-21 21:21:00,72.0,66.0,29.85,WNW,290,0.0,0.0,82,0.00,,,0.00,,2013-05-22 01:21:00,
2013-05-21 21:32:00,72.0,66.0,29.87,WNW,289,0.0,0.0,82,0.00,,,0.00,,2013-05-22 01:32:00,
2013-05-21 21:42:00,72.0,67.0,29.87,WNW,289,0.0,0.0,83,0.00,,,0.00,,2013-05-22 01:42:00,
2013-05-21 21:52:00,72.0,67.0,29.87,WNW,289,0.0,0.0,83,0.00,,,0.00,,2013-05-22 01:52:00,
2013-05-21 22:02:00,71.0,66.0,29.88,WNW,289,0.0,0.0,84,0.00,,,0.00,,2013-05-22 02:02:00,
2013-05-21 22:11:00,71.0,66.0,29.88,WNW,289,0.0,0.0,84,0.00,,,0.00,,2013-05-22 02:11:00,
2013-05-21 22:21:00,71.0,66.0,29.88,WNW,289,0.0,0.0,85,0.00,,,0.00,,2013-05-22 02:21:00,
2013-05-21 22:32:00,70.0,66.0,29.88,WNW,289,0.0,0.0,86,0.00,,,0.00,,2013-05-22 02:32:00,
2013-05-21 22:42:00,70.0,66.0,29.89,WNW,289,0.0,0.0,86,0.00,,,0.00,,2013-05-22 02:42:00,
2013-05-21 22:52:00,70.0,66.0,29.89,WNW,289,0.0,0.0,86,0.00,,,0.00,,2013-05-22 02:52:00,
2013-05-21 23:01:00,69.0,65.0,29.90,WNW,289,0.0,0.0,87,0.00,,,0.00,,2013-05-22 03:01:00,
2013-05-21 23:11:00,69.0,65.0,29.90,WNW,289,0.0,0.0,87,0.00,,,0.00,,2013-05-22 03:11:00,
2013-05-21 23:21:00,69.0,65.0,29.90,WNW,289,0.0,0.0,87,0.00,,,0.00,,2013-05-22 03:21:00,
2013-05-21 23:33:00,69.0,65.0,29.90,WSW,258,0.0,0.0,88,0.00,,,0.00,,2013-05-22 03:33:00,
2013-05-21 23:43:00,69.0,65.0,29.90,WSW,258,0.0,0.0,88,0.00,,,0.00,,2013-05-22 03:43:00,
2013-05-21 23:53:00,69.0,65.0,29.90,WSW,258,0.0,0.0,88,0.00,,,0.00,,2013-05-22 03:53:00,